Weather History for Baker, MT

Change the Weather History Date:

Tuesday, October 30, 2012

  Actual Average Record
Temperature  
Mean Temperature 46 °F -  
Max Temperature 61 °F 66 °F 69 °F (2008)
Min Temperature 33 °F 42 °F 3 °F (2002)
Degree Days  
Heating Degree Days 19    
Moisture  
Dew Point 36 °F    
Average Humidity 71    
Maximum Humidity 93    
Minimum Humidity 42    
Precipitation  
Precipitation 0.01 in - - ()
Sea Level Pressure  
Sea Level Pressure 30.01 in    
Wind  
Wind Speed 5 mph (SW)    
Max Wind Speed 13 mph    
Max Gust Speed -    
Visibility 8 miles    
Events Rain    
Averages and records for this station are not official NWS values.
T = Trace of Precipitation, MM = Missing Value Source: NWS Daily Summary

Daily Weather History Graph

Daily Weather History Graph

Search for Another Location

Airport:

Trip Planner

Search our weather history database for the weather conditions in past years. The results will help you decide how hot, cold, wet, or windy it might be!

Date:

Astronomy

Oct. 30, 2012 Rise Set
Actual Time 7:36 AM MDT 5:44 PM MDT
Civil Twilight 7:04 AM MDT 6:15 PM MDT
Nautical Twilight 6:29 AM MDT 6:51 PM MDT
Astronomical Twilight 5:54 AM MDT 7:26 PM MDT
Moon 6:10 PM MDT (10/30) 8:29 AM MDT (10/30)
Length of Visible Light 11h 10m
Length of Day
10h 08m
Full, 99% of the Moon is Illuminated
Oct 30
Full
Nov 6
Last Quarter
Nov 13
New
Nov 20
First Quarter
Nov 28
Full

Hourly Weather History & Observations

Time (MDT) Temp. Windchill Dew Point Humidity Pressure Visibility Wind Dir Wind Speed Gust Speed Precip Events Conditions
1:08 AM 48.2 °F - 42.8 °F 82% 29.92 in 10.0 mi South 12.7 mph - 0.01 in Rain Light Rain
1:51 AM 46.9 °F - 41.0 °F 80% 29.95 in 10.0 mi West 8.1 mph - 0.01 in   Mostly Cloudy
2:51 AM 43.0 °F - 39.0 °F 86% 29.98 in 10.0 mi Calm Calm - N/A   Clear
5:51 AM 39.9 °F - 36.0 °F 86% 30.03 in 10.0 mi Calm Calm - N/A   Clear
7:12 AM 35.6 °F - 33.8 °F 93% 30.01 in 1.8 mi Calm Calm - N/A   Clear
7:30 AM 35.6 °F - 33.8 °F 93% 30.01 in 3.0 mi Calm Calm - N/A   Clear
7:44 AM 33.8 °F - 30.2 °F 87% 30.02 in 1.8 mi Calm Calm - N/A   Clear
7:51 AM 33.1 °F - 30.0 °F 89% 30.06 in 2.5 mi Calm Calm - N/A   Clear
7:56 AM 33.8 °F - 30.2 °F 87% 30.02 in 10.0 mi Calm Calm - N/A   Clear
9:51 AM 50.0 °F - 43.0 °F 77% 30.05 in 10.0 mi WSW 5.8 mph - N/A   Clear
10:51 AM 54.0 °F - 39.9 °F 59% 30.05 in 10.0 mi West 11.5 mph - N/A   Clear
11:51 AM 57.9 °F - 37.9 °F 47% 30.05 in 10.0 mi West 6.9 mph - N/A   Scattered Clouds
1:51 PM 59.0 °F - 36.0 °F 42% 30.01 in 10.0 mi WSW 6.9 mph - N/A   Clear
2:51 PM 59.0 °F - 36.0 °F 42% 30.00 in 10.0 mi West 6.9 mph - N/A   Clear
3:51 PM 57.0 °F - 37.9 °F 49% 30.00 in 10.0 mi WSW 6.9 mph - N/A   Clear
4:51 PM 57.0 °F - 36.0 °F 45% 30.01 in 10.0 mi WSW 3.5 mph - N/A   Clear
5:51 PM 48.9 °F - 36.0 °F 61% 30.02 in 10.0 mi SSW 3.5 mph - N/A   Clear
7:51 PM 42.1 °F 39.2 °F 34.0 °F 73% 30.05 in 10.0 mi SE 4.6 mph - N/A   Clear
8:51 PM 42.1 °F 38.4 °F 35.1 °F 76% 30.03 in 10.0 mi ESE 5.8 mph - N/A   Clear
10:51 PM 46.0 °F 42.5 °F 35.1 °F 66% 29.99 in 10.0 mi South 6.9 mph - N/A   Clear
11:51 PM 39.0 °F 35.7 °F 33.1 °F 79% 29.98 in 10.0 mi SE 4.6 mph - N/A   Clear